Regional Weather Roundup
Issued by NWS Cleveland, OH

Home | Current Version | Previous Version | Text Only | Print | Product List | Glossary Off
Versions: 1 2 3 4 5 6 7 8 9 10 11 12 13 14 15 16 17 18 19 20 21 22 23 24 25 26 27 28 29 30 31 32 33 34 35 36 37 38 39 40 41 42 43 44 45 46 47 48 49 50

000
ASUS41 KCLE 281802
RWRCLE
OHIO REGIONAL WEATHER ROUNDUP
NATIONAL WEATHER SERVICE CLEVELAND, OH
100 PM EST FRI NOV 28 2014

NOTE: "FAIR" INDICATES FEW OR NO CLOUDS BELOW 12,000 FEET WITH NO
SIGNIFICANT WEATHER AND/OR OBSTRUCTIONS TO VISIBILITY.

OHZ001>008-015>018-024>027-034-035-043-044-281900-
   NORTHWEST OHIO

CITY           SKY/WX    TMP DP  RH WIND       PRES   REMARKS
DEFIANCE       FLURRIES  27  18  69 SW12      30.26F WCI  17
FINDLAY        CLOUDY    29  17  61 SW12      30.26F WCI  19
TOLEDO EXPRESS PTSUNNY   26  14  60 SW10      30.26F WCI  16
TOLEDO EXEC    CLOUDY    27  17  66 S10       30.28F WCI  17
LIMA           CLOUDY    29  18  63 SW10      30.26F WCI  20
$$

OHZ009>014-019>023-028>033-038-089-281900-
   NORTHEAST OHIO

CITY           SKY/WX    TMP DP  RH WIND       PRES   REMARKS
CLE-HOPKINS    PTSUNNY   25  14  63 SW9       30.30F WCI  15
CLE-LAKEFRONT  PTSUNNY   28  16  60 SW10      30.28F WCI  19
CUY CO. ARPT   CLOUDY    27  18  69 SW16      30.28F WCI  14
LORAIN-ELYRIA  SUNNY     24  16  71 SW10      30.28F WCI  14
ASHTABULA      CLOUDY    25  14  63 SW12      30.26F WCI  14
AKRON-CANTON   CLOUDY    26  15  63 SW9       30.27F WCI  17
WOOSTER        CLOUDY    25  17  72 S6        30.27F WCI  18
MANSFIELD      CLOUDY    26  18  71 SW8       30.25F WCI  18
YOUNGSTOWN     CLOUDY    26  14  60 W9        30.26F WCI  17
$$

OHZ042-051>053-060>062-070>072-077>081-281900-
  SOUTHWEST OHIO

CITY           SKY/WX    TMP DP  RH WIND       PRES   REMARKS
CINC-COVINGTON CLOUDY    33  16  49 S10       30.29F WCI  25
CINC-LUNKEN    CLOUDY    34  16  47 SW10      30.33F WCI  26
HAMILTON       CLOUDY    34  17  50 SW8       30.31F WCI  27
DAYTON         CLOUDY    31  19  61 S14       30.27F WCI  21
WRIGHT-PAT AFB CLOUDY    30  18  60 S13       30.28F WCI  20
DAYTON GENERAL PTSUNNY   31  21  66 S8        30.27F WCI  23
WILMINGTON     CLOUDY    29  19  66 S10       30.27F WCI  20
$$

OHZ036-037-039>041-045>050-054>059-063>069-073>076-082>088-281900-
  CENTRAL AND SOUTHEAST OHIO

CITY           SKY/WX    TMP DP  RH WIND       PRES   REMARKS
COLUMBUS       CLOUDY    28  15  58 S8        30.31F WCI  20
OSU AIRPORT    CLOUDY    28  17  63 SW10      30.29F WCI  19
BOLTON FIELD   CLOUDY    28  18  64 SW13      30.31F WCI  18
RICKENBACK AFB NOT AVBL
NEWARK         CLOUDY    29  16  58 SW8       30.30F WCI  21
MARION         CLOUDY    28  18  66 SW13      30.27F WCI  17
LANCASTER      CLOUDY    29  17  61 SW9       30.31F WCI  20
ZANESVILLE     CLOUDY    29  16  58 SW8       30.31F WCI  21
NEW PHILLY     CLOUDY    28  17  63 SW6       30.30F WCI  22
$$


USA.gov is the U.S. government's official web portal to all federal, state and local government web resources and services.